TimePDT,TemperatureF,Dew PointF,Humidity,Sea Level PressureIn,VisibilityMPH,Wind Direction,Wind SpeedMPH,Gust SpeedMPH,PrecipitationIn,Events,Conditions,WindDirDegrees,DateUTC
12:53 AM,46.9,44.1,90,30.20,7.0,Calm,Calm,-,N/A,,Scattered Clouds,0,2013-05-14 07:53:00
1:00 AM,48.2,44.6,87,30.20,7.0,Calm,Calm,-,N/A,,Mostly Cloudy,0,2013-05-14 08:00:00
1:29 AM,46.4,44.6,93,30.20,6.0,Calm,Calm,-,N/A,,Scattered Clouds,0,2013-05-14 08:29:00
1:53 AM,46.9,44.1,90,30.20,6.0,Calm,Calm,-,N/A,,Partly Cloudy,0,2013-05-14 08:53:00
2:08 AM,46.4,44.6,93,30.20,5.0,Calm,Calm,-,N/A,,Mostly Cloudy,0,2013-05-14 09:08:00
2:53 AM,48.0,45.0,89,30.20,6.0,Calm,Calm,-,N/A,,Scattered Clouds,0,2013-05-14 09:53:00
3:53 AM,48.0,45.0,89,30.21,5.0,Calm,Calm,-,N/A,,Clear,0,2013-05-14 10:53:00
4:34 AM,46.4,44.6,93,30.20,2.5,Calm,Calm,-,N/A,,Clear,0,2013-05-14 11:34:00
4:42 AM,46.4,44.6,93,30.20,5.0,Calm,Calm,-,N/A,,Clear,0,2013-05-14 11:42:00
4:53 AM,46.9,44.1,90,30.20,7.0,Calm,Calm,-,N/A,,Clear,0,2013-05-14 11:53:00
5:53 AM,48.0,44.1,86,30.21,7.0,ENE,3.5,-,N/A,,Mostly Cloudy,70,2013-05-14 12:53:00
6:51 AM,48.2,44.6,87,30.21,7.0,Calm,Calm,-,N/A,,Overcast,0,2013-05-14 13:51:00
6:53 AM,48.9,45.0,86,30.22,7.0,East,3.5,-,N/A,,Overcast,90,2013-05-14 13:53:00
7:53 AM,50.0,46.0,86,30.22,7.0,Calm,Calm,-,N/A,,Overcast,0,2013-05-14 14:53:00
8:53 AM,53.1,46.9,80,30.22,7.0,Variable,3.5,-,N/A,,Overcast,0,2013-05-14 15:53:00
9:14 AM,53.6,46.4,77,30.21,7.0,Variable,5.8,-,N/A,,Overcast,0,2013-05-14 16:14:00
9:25 AM,53.6,46.4,77,30.22,6.0,South,5.8,-,N/A,,Haze,190,2013-05-14 16:25:00
9:53 AM,57.0,48.0,72,30.22,7.0,Variable,4.6,-,N/A,,Mostly Cloudy,0,2013-05-14 16:53:00
10:53 AM,57.0,46.0,67,30.22,7.0,SSW,8.1,-,N/A,,Mostly Cloudy,210,2013-05-14 17:53:00
11:53 AM,59.0,45.0,60,30.22,7.0,WSW,10.4,-,N/A,,Clear,240,2013-05-14 18:53:00
12:53 PM,59.0,44.1,58,30.21,7.0,SSW,8.1,-,N/A,,Partly Cloudy,200,2013-05-14 19:53:00
1:53 PM,60.1,44.1,55,30.20,8.0,South,8.1,-,N/A,,Clear,190,2013-05-14 20:53:00
2:53 PM,61.0,45.0,56,30.19,8.0,SW,8.1,-,N/A,,Clear,220,2013-05-14 21:53:00
3:53 PM,59.0,44.1,58,30.18,8.0,WSW,9.2,-,N/A,,Clear,240,2013-05-14 22:53:00
4:53 PM,57.9,45.0,62,30.17,7.0,SW,8.1,-,N/A,,Partly Cloudy,230,2013-05-14 23:53:00
5:53 PM,57.0,44.1,62,30.17,7.0,SW,6.9,-,N/A,,Scattered Clouds,230,2013-05-15 00:53:00
6:53 PM,55.9,45.0,67,30.17,7.0,WSW,6.9,-,N/A,,Partly Cloudy,240,2013-05-15 01:53:00
7:53 PM,54.0,46.0,75,30.16,7.0,Calm,Calm,-,N/A,,Clear,0,2013-05-15 02:53:00
8:53 PM,53.1,46.0,77,30.15,7.0,Calm,Calm,-,N/A,,Overcast,0,2013-05-15 03:53:00
9:53 PM,52.0,46.9,83,30.15,8.0,Calm,Calm,-,N/A,,Overcast,0,2013-05-15 04:53:00
10:53 PM,52.0,46.0,80,30.14,8.0,Calm,Calm,-,N/A,,Overcast,0,2013-05-15 05:53:00
11:53 PM,51.1,46.0,83,30.13,8.0,Calm,Calm,-,N/A,,Overcast,0,2013-05-15 06:53:00